Total_Precipitation_Accumulation
1.25 1.29 1.33 1.34 1.34 1.32 1.27 1.19 1.24 1.29 1.29 1.25 1.28 1.36 1.39 1.41 1.49 1.57 1.52 1.63 1.66 1.68 1.71 1.84 1.93 2.09 2.08 1.94 2.03 2.14 2.24 2.40 2.15 1.96 1.88 1.69 1.62 1.49 1.41 1.32 1.16 1.11 0.98
1.22 1.32 1.44 1.42 1.39 1.29 1.18 1.13 1.16 1.19 1.21 1.22 1.29 1.32 1.27 1.33 1.46 1.53 1.52 1.59 1.64 1.62 1.66 1.81 1.84 1.92 2.00 1.92 1.88 1.90 2.06 2.26 2.23 2.10 2.14 2.06 1.88 1.72 1.65 1.55 1.23 1.06 1.03
1.24 1.31 1.41 1.36 1.31 1.20 1.11 1.12 1.12 1.13 1.18 1.21 1.17 1.16 1.16 1.25 1.39 1.46 1.52 1.57 1.63 1.69 1.70 1.67 1.64 1.77 1.92 2.06 2.06 2.01 2.04 2.17 2.32 2.24 2.22 2.28 2.05 1.85 1.92 1.76 1.56 1.56 1.18
1.10 1.14 1.20 1.16 1.13 1.14 1.14 1.08 1.04 1.10 1.15 1.19 1.18 1.21 1.22 1.25 1.30 1.36 1.42 1.40 1.41 1.44 1.47 1.50 1.50 1.52 1.68 2.04 2.09 2.17 2.18 2.20 2.34 2.35 2.33 2.37 2.39 2.17 2.17 1.97 1.85 1.76 1.53
1.05 1.09 1.15 1.18 1.15 1.13 1.08 1.00 1.01 1.02 0.96 1.07 1.17 1.15 1.17 1.17 1.09 1.18 1.23 1.16 1.21 1.18 1.14 1.14 1.15 1.24 1.27 1.41 1.51 1.79 2.01 2.10 2.16 2.27 2.30 2.34 2.36 2.46 2.24 2.10 2.05 1.99 1.86
0.84 0.91 1.09 1.18 1.13 1.09 0.99 0.94 0.92 0.94 1.03 1.11 1.14 1.10 1.05 0.94 1.03 1.10 1.11 1.09 1.10 1.07 0.98 0.97 0.97 1.04 1.08 1.09 1.08 1.26 1.53 1.78 2.05 2.26 2.31 2.34 2.37 2.48 2.47 2.33 2.23 2.09 1.99
0.77 0.82 0.86 0.96 1.03 0.99 0.89 0.87 0.89 0.96 1.09 1.15 1.16 1.20 1.18 1.17 1.17 1.17 1.13 1.04 1.01 0.99 0.96 0.98 0.85 0.80 0.89 0.87 0.94 1.00 1.11 1.27 1.42 1.79 2.06 2.07 2.17 2.30 2.53 2.48 2.41 2.34 2.21
0.86 0.87 0.84 0.87 0.95 0.98 0.94 0.92 0.99 1.06 1.11 1.16 1.15 1.19 1.26 1.19 1.21 1.13 1.06 0.94 0.95 1.00 0.97 1.00 0.95 0.89 0.91 0.96 1.03 0.99 0.94 0.98 1.08 1.18 1.31 1.50 1.73 2.07 2.35 2.48 2.61 2.64 2.62
0.89 0.89 0.88 0.90 0.96 1.01 0.99 1.05 1.15 1.25 1.18 1.14 1.20 1.28 1.32 1.32 1.25 1.10 1.02 0.94 0.98 1.02 0.98 0.97 0.98 0.93 0.96 0.92 0.99 1.03 1.00 0.98 1.00 1.07 1.07 1.21 1.34 1.55 1.84 2.04 2.22 2.41 2.65
0.98 0.94 0.98 1.07 1.12 1.17 1.26 1.42 1.50 1.51 1.44 1.39 1.31 1.33 1.35 1.41 1.34 1.15 1.08 1.01 1.09 1.17 1.21 1.19 1.15 1.07 1.02 0.98 0.95 1.01 1.02 1.00 1.03 1.04 1.03 1.01 1.04 1.14 1.35 1.50 1.66 1.90 2.15
1.22 1.23 1.25 1.36 1.43 1.48 1.65 1.78 1.83 1.82 1.91 1.85 1.69 1.60 1.59 1.56 1.49 1.32 1.28 1.23 1.32 1.45 1.43 1.34 1.25 1.15 0.98 0.92 0.90 0.91 0.93 0.97 1.07 1.15 1.15 1.11 1.09 1.06 1.11 1.24 1.44 1.54 1.66
1.45 1.50 1.56 1.70 1.63 1.63 1.85 1.94 2.07 2.19 2.16 2.07 2.07 1.98 1.88 1.80 1.60 1.44 1.38 1.35 1.35 1.44 1.50 1.40 1.28 1.14 0.94 0.84 0.79 0.76 0.77 0.76 0.82 0.94 1.01 1.06 1.07 1.02 1.03 1.16 1.37 1.52 1.51
1.68 1.75 1.87 2.00 2.12 2.15 2.23 2.27 2.29 2.31 2.28 2.22 2.22 2.17 2.08 1.97 1.81 1.53 1.41 1.38 1.32 1.28 1.32 1.30 1.20 1.07 0.94 0.82 0.81 0.77 0.71 0.70 0.80 0.87 0.91 1.00 1.03 1.00 1.02 1.14 1.30 1.48 1.51
1.80 1.83 1.95 2.11 2.18 2.25 2.38 2.40 2.38 2.37 2.40 2.41 2.36 2.25 2.14 2.06 1.95 1.76 1.54 1.40 1.29 1.18 1.18 1.23 1.19 1.07 0.94 0.90 0.89 0.81 0.75 0.81 0.89 0.88 0.90 0.97 1.06 1.09 1.11 1.11 1.23 1.34 1.43
1.89 1.96 2.09 2.24 2.35 2.43 2.33 2.36 2.40 2.42 2.36 2.24 2.17 2.13 2.15 2.10 1.98 1.80 1.63 1.52 1.44 1.37 1.30 1.29 1.29 1.18 1.10 1.07 1.10 1.09 1.07 1.03 0.96 0.96 1.01 1.06 1.13 1.17 1.16 1.19 1.24 1.30 1.29
1.99 2.04 2.14 2.22 2.35 2.37 2.35 2.24 2.12 2.01 1.97 1.83 1.81 1.85 1.86 1.85 1.76 1.57 1.44 1.38 1.38 1.44 1.37 1.36 1.43 1.43 1.37 1.31 1.28 1.27 1.24 1.18 1.14 1.15 1.18 1.19 1.18 1.19 1.18 1.26 1.36 1.38 1.36
2.04 2.06 2.09 2.09 2.18 2.28 2.28 2.20 2.07 1.93 1.81 1.68 1.60 1.54 1.47 1.46 1.44 1.40 1.40 1.40 1.37 1.35 1.30 1.38 1.50 1.57 1.59 1.55 1.47 1.38 1.33 1.26 1.20 1.20 1.20 1.21 1.21 1.25 1.29 1.33 1.40 1.45 1.44
1.98 2.02 1.96 1.94 2.02 2.14 2.16 2.16 2.15 2.06 1.99 1.87 1.74 1.63 1.46 1.32 1.28 1.31 1.36 1.35 1.33 1.29 1.32 1.47 1.57 1.61 1.67 1.67 1.56 1.48 1.41 1.33 1.28 1.29 1.32 1.36 1.35 1.36 1.36 1.34 1.35 1.38 1.43
1.93 1.93 1.95 1.98 2.02 2.07 2.12 2.16 2.17 2.08 2.04 1.92 1.72 1.54 1.42 1.30 1.24 1.26 1.24 1.19 1.26 1.35 1.42 1.57 1.64 1.63 1.57 1.52 1.48 1.45 1.39 1.34 1.31 1.31 1.31 1.30 1.30 1.32 1.36 1.39 1.41 1.48 1.45
1.76 1.90 1.96 1.90 1.89 1.94 2.04 2.13 2.14 2.12 2.11 2.06 1.91 1.62 1.41 1.27 1.21 1.25 1.19 1.18 1.24 1.28 1.31 1.41 1.51 1.55 1.53 1.48 1.44 1.37 1.32 1.30 1.26 1.26 1.26 1.26 1.30 1.31 1.28 1.32 1.36 1.33 1.31
1.68 1.69 1.79 1.79 1.77 1.79 1.85 1.89 1.95 1.92 1.84 1.80 1.76 1.61 1.47 1.32 1.32 1.28 1.25 1.24 1.21 1.19 1.25 1.35 1.41 1.40 1.35 1.32 1.33 1.29 1.27 1.27 1.25 1.24 1.28 1.30 1.32 1.30 1.23 1.20 1.20 1.19 1.19
1.76 1.75 1.64 1.64 1.65 1.70 1.70 1.70 1.71 1.66 1.60 1.56 1.53 1.44 1.40 1.31 1.32 1.30 1.24 1.21 1.14 1.09 1.10 1.15 1.22 1.25 1.22 1.18 1.20 1.23 1.23 1.21 1.23 1.21 1.21 1.21 1.24 1.21 1.16 1.16 1.18 1.21 1.27
1.67 1.65 1.54 1.46 1.40 1.46 1.47 1.48 1.49 1.46 1.45 1.43 1.39 1.28 1.22 1.23 1.20 1.14 1.08 1.03 1.00 1.00 1.01 1.05 1.09 1.10 1.07 1.04 1.06 1.11 1.12 1.09 1.10 1.13 1.17 1.18 1.18 1.14 1.13 1.16 1.15 1.21 1.25
1.54 1.51 1.46 1.36 1.23 1.20 1.27 1.38 1.40 1.38 1.37 1.29 1.17 1.08 1.05 1.05 1.01 0.91 0.87 0.86 0.86 0.84 0.84 0.88 0.86 0.83 0.85 0.89 0.92 0.92 0.92 0.89 0.89 0.93 0.96 1.02 1.06 1.03 1.03 1.03 1.00 1.04 1.16
1.32 1.32 1.34 1.28 1.15 1.08 1.16 1.24 1.23 1.18 1.14 1.06 0.95 0.92 0.89 0.87 0.85 0.83 0.80 0.78 0.76 0.75 0.68 0.68 0.71 0.70 0.71 0.72 0.72 0.72 0.70 0.67 0.65 0.68 0.73 0.80 0.88 0.93 0.94 0.95 0.98 1.07 1.16
1.12 1.13 1.14 1.11 1.04 0.98 1.03 1.10 1.09 1.02 0.99 0.90 0.79 0.78 0.80 0.81 0.82 0.82 0.78 0.73 0.70 0.66 0.61 0.62 0.65 0.64 0.62 0.62 0.61 0.56 0.54 0.52 0.53 0.57 0.58 0.66 0.77 0.86 0.89 0.92 0.93 0.98 1.04